• In Austria
  • List of Countries
  • For 7 days
  • Water Temperature
  • Satellite Maps
  • Weather Map
  • News
  • Weather Widgets
  • user-avatar
    Login

    Hourly Weather Parshino

    Today, 25 September, Tuesday

    Time Temperature Precipitation Wind Pressure Humidity
    00:00 +6°C° 0 mm 5 mps 742 mmHg 90%
    01:00 +6°C° 0 mm 5 mps 743 mmHg 90%
    02:00 +5°C° 0 mm 5 mps 743 mmHg 89%
    03:00 +5°C° 0 mm 5 mps 744 mmHg 90%
    04:00 +4°C° 0 mm 4 mps 745 mmHg 90%
    05:00 +4°C° 0 mm 4 mps 745 mmHg 91%
    06:00 +5°C° 0 mm 5 mps 746 mmHg 89%
    07:00 +5°C° 0 mm 5 mps 747 mmHg 87%
    08:00 +6°C° 0 mm 5 mps 747 mmHg 85%
    09:00 +7°C° 0 mm 5 mps 748 mmHg 78%
    10:00 +8°C° 0 mm 5 mps 749 mmHg 71%
    11:00 +9°C° 0 mm 5 mps 749 mmHg 65%
    12:00 +9°C° 0.1 mm 6 mps 750 mmHg 62%
    13:00 +9°C° 0.1 mm 6 mps 750 mmHg 60%
    14:00 +9°C° 0.1 mm 6 mps 751 mmHg 57%
    15:00 +9°C° 0.1 mm 5 mps 751 mmHg 61%
    16:00 +8°C° 0.1 mm 5 mps 752 mmHg 64%
    17:00 +7°C° 0.1 mm 4 mps 753 mmHg 68%
    18:00 +6°C° 0 mm 4 mps 753 mmHg 69%
    19:00 +5°C° 0 mm 4 mps 754 mmHg 70%
    20:00 +4°C° 0 mm 4 mps 755 mmHg 71%
    21:00 +4°C° 0 mm 3 mps 756 mmHg 71%
    22:00 +3°C° 0 mm 3 mps 756 mmHg 72%
    23:00 +3°C° 0 mm 3 mps 757 mmHg 73%

    Tomorrow, 26 September, Wednesday

    Time Temperature Precipitation Wind Pressure Humidity
    00:00 +3°C° 0 mm 3 mps 757 mmHg 75%
    01:00 +2°C° 0 mm 3 mps 758 mmHg 77%
    02:00 +2°C° 0 mm 3 mps 758 mmHg 79%
    03:00 +2°C° 0 mm 3 mps 758 mmHg 81%
    04:00 +3°C° 0 mm 3 mps 759 mmHg 83%
    05:00 +3°C° 0 mm 3 mps 759 mmHg 86%
    06:00 +3°C° 0 mm 3 mps 759 mmHg 82%
    07:00 +4°C° 0 mm 3 mps 759 mmHg 79%
    08:00 +5°C° 0 mm 3 mps 759 mmHg 75%
    09:00 +6°C° 0 mm 4 mps 759 mmHg 67%
    10:00 +8°C° 0 mm 4 mps 758 mmHg 60%
    11:00 +10°C° 0 mm 5 mps 758 mmHg 52%
    12:00 +10°C° 0 mm 5 mps 757 mmHg 52%
    13:00 +12°C° 0 mm 5 mps 757 mmHg 51%
    14:00 +11°C° 0 mm 6 mps 756 mmHg 51%
    15:00 +10°C° 0.1 mm 6 mps 755 mmHg 59%
    16:00 +9°C° 0.1 mm 6 mps 754 mmHg 66%
    17:00 +8°C° 0.1 mm 6 mps 753 mmHg 74%
    18:00 +8°C° 1.1 mm 6 mps 752 mmHg 79%
    19:00 +6°C° 1.1 mm 7 mps 751 mmHg 84%
    20:00 +6°C° 1.1 mm 8 mps 750 mmHg 88%
    21:00 +6°C° 1.1 mm 8 mps 749 mmHg 89%
    22:00 +6°C° 1.1 mm 8 mps 747 mmHg 89%
    23:00 +7°C° 1.1 mm 8 mps 746 mmHg 89%

    Day after tomorrow, 27 September, Thursday

    Time Temperature Precipitation Wind Pressure Humidity
    00:00 +8°C° 0.8 mm 7 mps 745 mmHg 89%
    01:00 +8°C° 0.8 mm 7 mps 745 mmHg 90%
    02:00 +9°C° 0.8 mm 7 mps 744 mmHg 90%
    03:00 +9°C° 0.7 mm 6 mps 744 mmHg 91%
    04:00 +9°C° 0.7 mm 5 mps 744 mmHg 92%
    05:00 +10°C° 0.7 mm 4 mps 744 mmHg 93%
    06:00 +10°C° 0.1 mm 4 mps 745 mmHg 89%
    07:00 +8°C° 0.1 mm 4 mps 745 mmHg 86%
    08:00 +8°C° 0.1 mm 4 mps 745 mmHg 83%
    09:00 +9°C° 0 mm 5 mps 746 mmHg 76%
    10:00 +10°C° 0 mm 5 mps 746 mmHg 68%
    11:00 +11°C° 0 mm 6 mps 746 mmHg 61%
    12:00 +11°C° 0 mm 6 mps 747 mmHg 57%
    13:00 +11°C° 0 mm 6 mps 747 mmHg 54%
    14:00 +13°C° 0 mm 6 mps 748 mmHg 50%
    15:00 +12°C° 0 mm 5 mps 748 mmHg 55%
    16:00 +11°C° 0 mm 4 mps 748 mmHg 59%
    17:00 +10°C° 0 mm 3 mps 749 mmHg 64%
    18:00 +9°C° 0 mm 3 mps 749 mmHg 66%
    19:00 +9°C° 0 mm 3 mps 750 mmHg 67%
    20:00 +8°C° 0 mm 3 mps 750 mmHg 69%
    21:00 +7°C° 0 mm 3 mps 750 mmHg 72%
    22:00 +7°C° 0 mm 3 mps 750 mmHg 75%
    23:00 +6°C° 0 mm 2 mps 750 mmHg 77%

    28 September, Friday

    Time Temperature Precipitation Wind Pressure Humidity
    00:00 +5°C° 0 mm 3 mps 750 mmHg 76%
    01:00 +7°C° 0 mm 3 mps 749 mmHg 75%
    02:00 +7°C° 0 mm 3 mps 748 mmHg 74%
    03:00 +7°C° 0.3 mm 4 mps 747 mmHg 79%
    04:00 +8°C° 0.3 mm 5 mps 745 mmHg 84%
    05:00 +9°C° 0.3 mm 6 mps 744 mmHg 89%
    06:00 +10°C° 0.5 mm 7 mps 743 mmHg 88%
    07:00 +11°C° 0.5 mm 7 mps 741 mmHg 87%
    08:00 +14°C° 0.5 mm 7 mps 740 mmHg 87%
    09:00 +14°C° 0.7 mm 7 mps 740 mmHg 85%
    10:00 +12°C° 0.7 mm 8 mps 740 mmHg 83%
    11:00 +12°C° 0.7 mm 8 mps 740 mmHg 81%
    12:00 +12°C° 0.4 mm 8 mps 741 mmHg 78%
    13:00 +12°C° 0.4 mm 7 mps 742 mmHg 75%
    14:00 +11°C° 0.4 mm 7 mps 742 mmHg 71%
    15:00 +9°C° 0.1 mm 6 mps 744 mmHg 75%
    16:00 +8°C° 0.1 mm 5 mps 745 mmHg 78%
    17:00 +6°C° 0.1 mm 4 mps 747 mmHg 81%
    18:00 +5°C° 0 mm 3 mps 748 mmHg 84%
    19:00 +4°C° 0 mm 3 mps 749 mmHg 88%
    20:00 +4°C° 0 mm 2 mps 750 mmHg 92%
    21:00 +4°C° 0 mm 2 mps 750 mmHg 92%
    22:00 +5°C° 0 mm 1 mps 751 mmHg 93%
    23:00 +4°C° 0 mm 1 mps 751 mmHg 94%

    29 September, Saturday

    Time Temperature Precipitation Wind Pressure Humidity
    00:00 +4°C° 0 mm 1 mps 751 mmHg 94%
    01:00 +4°C° 0 mm 2 mps 751 mmHg 93%
    02:00 +4°C° 0 mm 2 mps 752 mmHg 93%
    03:00 +4°C° 0.1 mm 2 mps 752 mmHg 93%
    04:00 +4°C° 0.1 mm 2 mps 752 mmHg 94%
    05:00 +4°C° 0.1 mm 2 mps 752 mmHg 94%
    06:00 +5°C° 0.1 mm 2 mps 753 mmHg 93%
    07:00 +5°C° 0.1 mm 2 mps 754 mmHg 92%
    08:00 +5°C° 0.1 mm 2 mps 754 mmHg 91%
    09:00 +5°C° 0.1 mm 3 mps 755 mmHg 87%
    10:00 +5°C° 0.1 mm 3 mps 756 mmHg 83%
    11:00 +5°C° 0.1 mm 3 mps 756 mmHg 79%
    12:00 +7°C° 0 mm 3 mps 757 mmHg 73%
    13:00 +8°C° 0 mm 3 mps 757 mmHg 67%
    14:00 +8°C° 0 mm 2 mps 757 mmHg 61%
    15:00 +8°C° 0 mm 2 mps 758 mmHg 64%
    16:00 +8°C° 0 mm 1 mps 758 mmHg 68%
    17:00 +7°C° 0 mm 1 mps 759 mmHg 72%
    18:00 +6°C° 0 mm 1 mps 759 mmHg 76%
    19:00 +5°C° 0 mm 1 mps 760 mmHg 81%
    20:00 +4°C° 0 mm 1 mps 760 mmHg 85%
    21:00 +4°C° 0 mm 1 mps 760 mmHg 87%
    22:00 +3°C° 0 mm 1 mps 761 mmHg 88%
    23:00 +3°C° 0 mm 1 mps 761 mmHg 90%

    30 September, Sunday

    Time Temperature Precipitation Wind Pressure Humidity
    00:00 +3°C° 0 mm 1 mps 761 mmHg 90%
    01:00 +3°C° 0 mm 1 mps 761 mmHg 90%
    02:00 +2°C° 0 mm 1 mps 761 mmHg 90%
    03:00 +1°C° 0 mm 2 mps 761 mmHg 90%
    04:00 +1°C° 0 mm 2 mps 761 mmHg 89%
    05:00 +1°C° 0 mm 2 mps 761 mmHg 89%
    06:00 +2°C° 0 mm 2 mps 761 mmHg 84%
    07:00 +3°C° 0 mm 2 mps 761 mmHg 80%
    08:00 +3°C° 0 mm 3 mps 761 mmHg 75%
    09:00 +5°C° 0 mm 3 mps 761 mmHg 69%
    10:00 +6°C° 0 mm 4 mps 760 mmHg 63%
    11:00 +8°C° 0 mm 4 mps 760 mmHg 57%
    12:00 +10°C° 0 mm 4 mps 760 mmHg 55%
    13:00 +10°C° 0 mm 4 mps 759 mmHg 53%
    14:00 +10°C° 0 mm 5 mps 759 mmHg 51%
    15:00 +10°C° 0 mm 4 mps 758 mmHg 56%
    16:00 +9°C° 0 mm 3 mps 758 mmHg 61%
    17:00 +8°C° 0 mm 3 mps 757 mmHg 66%
    18:00 +8°C° 0 mm 3 mps 757 mmHg 67%
    19:00 +8°C° 0 mm 3 mps 757 mmHg 68%
    20:00 +6°C° 0 mm 4 mps 757 mmHg 69%
    21:00 +6°C° 0.1 mm 4 mps 757 mmHg 72%
    22:00 +6°C° 0.1 mm 4 mps 757 mmHg 74%
    23:00 +6°C° 0.1 mm 4 mps 756 mmHg 76%
    Show more